Highgate, VT

9:58 PM EST on December 10, 2019 (GMT -0500)
Franklin County State

Weather History for KFSO - November, 2019

Change the Weather History Date:

Friday, November 22, 2019

  Actual Average (KPBG) Record (KPBG)
Temperature  
Mean Temperature 37 °F -  
Max Temperature 44 °F 39 °F 67 °F (1953)
Min Temperature 29 °F 26 °F 1 °F (2018)
Degree Days  
Heating Degree Days 28    
Moisture  
Dew Point 31 °F    
Average Humidity 73    
Maximum Humidity 94    
Minimum Humidity 54    
Precipitation  
Precipitation 0.00 in - - ()
Sea Level Pressure  
Sea Level Pressure 29.65 in    
Wind  
Wind Speed 10 mph (WSW)    
Max Wind Speed 15 mph    
Max Gust Speed 25 mph    
Visibility 10 miles    
Events Rain    
Averages and records for this station are not official NWS values.
T = Trace of Precipitation, MM = Missing Value Source: NWS Daily Summary

Daily Weather History Graph

Daily Weather History Graph

Search for Another Location

Airport or City:

Astronomy

Nov. 22, 2019 Rise Set
Actual Time 6:58 AM EST 4:17 PM EST
Civil Twilight 6:26 AM EST 4:50 PM EST
Nautical Twilight 5:50 AM EST 5:26 PM EST
Astronomical Twilight 5:15 AM EST 6:00 PM EST
Moon 1:45 AM EST (11/22) 2:31 PM EST (11/22)
Length of Visible Light 10h 23m
Length of Day
9h 18m
Waning Crescent, 20% of the Moon is Illuminated
Nov 22
Waning Crescent
Nov 26
New
Dec 4
First Quarter
Dec 12
Full
Dec 18
Last Quarter

Hourly Weather History & Observations

Time (EST) Temp. Windchill Dew Point Humidity Pressure Visibility Wind Dir Wind Speed Gust Speed Precip Events Conditions
12:15 AM 41.0 °F 35.2 °F 37.0 °F 86% 29.74 in 10.0 mi South 9.2 mph 18.4 mph N/A   Overcast
12:36 AM 40.6 °F 35.4 °F 37.2 °F 88% 29.74 in 10.0 mi South 8.1 mph 17.3 mph N/A   Overcast
1:35 AM 41.2 °F 34.5 °F 37.0 °F 85% 29.71 in 7.0 mi South 11.5 mph 19.6 mph N/A   Overcast
1:55 AM 42.1 °F 34.9 °F 36.9 °F 82% 29.69 in 10.0 mi South 13.8 mph 21.9 mph N/A   Overcast
2:15 AM 42.3 °F 35.5 °F 36.5 °F 80% 29.68 in 10.0 mi South 12.7 mph 23.0 mph N/A   Overcast
2:35 AM 42.6 °F 36.3 °F 36.0 °F 77% 29.67 in 10.0 mi South 11.5 mph 23.0 mph N/A   Overcast
2:55 AM 42.8 °F 36.6 °F 36.0 °F 77% 29.66 in 10.0 mi South 11.5 mph 21.9 mph N/A   Drizzle
3:15 AM 42.8 °F 36.6 °F 36.1 °F 77% 29.65 in 10.0 mi South 11.5 mph 23.0 mph N/A Rain Rain
3:55 AM 41.9 °F 35.0 °F 37.6 °F 85% 29.63 in 5.0 mi South 12.7 mph 23.0 mph N/A Rain Rain
4:35 AM 42.4 °F 35.3 °F 37.6 °F 83% 29.60 in 10.0 mi South 13.8 mph 18.4 mph N/A   Overcast
5:15 AM 43.7 °F 37.7 °F 37.4 °F 78% 29.58 in 10.0 mi South 11.5 mph 21.9 mph N/A   Overcast
5:35 AM 43.7 °F 38.1 °F 37.4 °F 78% 29.58 in 10.0 mi South 10.4 mph 18.4 mph N/A   Overcast
5:56 AM 43.5 °F 37.1 °F 37.2 °F 78% 29.57 in 10.0 mi South 12.7 mph 18.4 mph N/A   Overcast
6:16 AM 43.9 °F 38.3 °F 37.2 °F 77% 29.56 in 10.0 mi South 10.4 mph 18.4 mph N/A   Overcast
6:36 AM 43.7 °F 38.6 °F 37.4 °F 78% 29.55 in 10.0 mi South 9.2 mph 17.3 mph N/A   Overcast
6:55 AM 43.7 °F 38.6 °F 37.4 °F 78% 29.53 in 10.0 mi South 9.2 mph 16.1 mph N/A   Overcast
7:16 AM 44.1 °F 37.4 °F 37.8 °F 78% 29.53 in 10.0 mi South 13.8 mph 18.4 mph N/A   Overcast
7:56 AM 44.4 °F 37.9 °F 37.6 °F 77% 29.52 in 10.0 mi South 13.8 mph 23.0 mph N/A   Overcast
8:16 AM 44.6 °F 39.7 °F 37.6 °F 76% 29.53 in 10.0 mi South 9.2 mph 21.9 mph N/A   Overcast
8:36 AM 44.6 °F 38.1 °F 37.9 °F 77% 29.51 in 10.0 mi South 13.8 mph 19.6 mph N/A   Overcast
8:56 AM 44.8 °F 38.7 °F 38.1 °F 77% 29.52 in 10.0 mi SSW 12.7 mph 21.9 mph N/A   Overcast
9:16 AM 44.6 °F 38.8 °F 38.3 °F 79% 29.51 in 10.0 mi South 11.5 mph 19.6 mph N/A   Overcast
9:35 AM 44.6 °F 40.2 °F 39.2 °F 81% 29.51 in 10.0 mi SSW 8.1 mph - N/A   Light Drizzle
9:55 AM 44.1 °F 38.6 °F 40.1 °F 86% 29.51 in 4.0 mi South 10.4 mph 16.1 mph N/A Rain Light Rain
10:16 AM 43.9 °F 38.8 °F 41.0 °F 90% 29.51 in 7.0 mi South 9.2 mph 17.3 mph N/A Rain Rain
10:35 AM 43.5 °F 40.1 °F 41.0 °F 91% 29.53 in 3.0 mi West 5.8 mph - N/A Rain Rain
10:56 AM 43.7 °F 41.1 °F 41.9 °F 93% 29.54 in 2.5 mi SW 4.6 mph - N/A Rain Light Rain
11:16 AM 43.5 °F 38.9 °F 41.9 °F 94% 29.54 in 10.0 mi SW 8.1 mph - N/A   Overcast
11:36 AM 43.7 °F 41.1 °F 41.2 °F 91% 29.54 in 10.0 mi SW 4.6 mph - N/A   Overcast
11:56 AM 43.7 °F 39.7 °F 41.0 °F 90% 29.54 in 10.0 mi SW 6.9 mph 20.7 mph N/A   Overcast
12:16 PM 44.1 °F 39.5 °F 36.3 °F 74% 29.53 in 10.0 mi WSW 8.1 mph 18.4 mph N/A   Overcast
12:35 PM 44.2 °F 41.8 °F 34.5 °F 69% 29.53 in 10.0 mi WSW 4.6 mph - N/A   Mostly Cloudy
12:55 PM 44.2 °F 42.7 °F 33.8 °F 67% 29.53 in 10.0 mi WSW 3.5 mph - N/A   Mostly Cloudy
1:15 PM 44.6 °F 38.4 °F 33.8 °F 66% 29.53 in 10.0 mi West 12.7 mph 21.9 mph N/A   Overcast
1:35 PM 40.6 °F 34.3 °F 35.2 °F 81% 29.55 in 10.0 mi WNW 10.4 mph 25.3 mph N/A   Overcast
1:56 PM 40.1 °F 33.6 °F 34.5 °F 80% 29.56 in 10.0 mi West 10.4 mph 25.3 mph N/A   Overcast
2:15 PM 40.1 °F 35.3 °F 32.0 °F 73% 29.57 in 10.0 mi West 6.9 mph 21.9 mph N/A   Overcast
2:35 PM 40.5 °F 34.1 °F 30.0 °F 66% 29.58 in 10.0 mi West 10.4 mph 21.9 mph N/A   Overcast
2:55 PM 38.3 °F 31.4 °F 27.5 °F 65% 29.60 in 10.0 mi WNW 10.4 mph 21.9 mph N/A   Overcast
3:15 PM 37.4 °F 30.3 °F 26.4 °F 65% 29.62 in 10.0 mi West 10.4 mph 23.0 mph N/A   Overcast
3:35 PM 36.5 °F 29.7 °F 26.6 °F 67% 29.63 in 10.0 mi West 9.2 mph 19.6 mph N/A   Overcast
3:55 PM 36.0 °F 28.5 °F 26.2 °F 68% 29.64 in 10.0 mi West 10.4 mph 19.6 mph N/A   Overcast
4:16 PM 35.6 °F 27.1 °F 26.2 °F 69% 29.66 in 10.0 mi West 12.7 mph 21.9 mph N/A   Overcast
4:35 PM 35.2 °F 28.8 °F 24.1 °F 64% 29.67 in 10.0 mi West 8.1 mph 21.9 mph N/A   Overcast
4:55 PM 34.9 °F 26.2 °F 25.2 °F 68% 29.68 in 10.0 mi West 12.7 mph 24.2 mph N/A   Overcast
5:35 PM 34.2 °F 28.2 °F 23.4 °F 65% 29.71 in 10.0 mi WNW 6.9 mph 21.9 mph N/A   Overcast
5:56 PM 33.8 °F 28.6 °F 23.4 °F 66% 29.73 in 10.0 mi West 5.8 mph 20.7 mph N/A   Overcast
6:15 PM 33.3 °F 24.6 °F 23.4 °F 67% 29.74 in 10.0 mi West 11.5 mph 19.6 mph N/A   Overcast
6:36 PM 33.4 °F 27.3 °F 23.0 °F 66% 29.77 in 10.0 mi West 6.9 mph 18.4 mph N/A   Overcast
6:56 PM 33.3 °F 25.1 °F 22.3 °F 64% 29.77 in 10.0 mi WNW 10.4 mph 20.7 mph N/A   Overcast
7:16 PM 33.1 °F 26.1 °F 22.1 °F 64% 29.79 in 10.0 mi West 8.1 mph - N/A   Overcast
7:35 PM 33.3 °F 26.4 °F 22.1 °F 64% 29.79 in 10.0 mi West 8.1 mph 20.7 mph N/A   Overcast
7:55 PM 32.9 °F 24.1 °F 21.7 °F 64% 29.80 in 10.0 mi West 11.5 mph 20.7 mph N/A   Overcast
8:16 PM 32.5 °F 23.2 °F 21.0 °F 63% 29.81 in 10.0 mi West 12.7 mph 23.0 mph N/A   Mostly Cloudy
8:35 PM 32.9 °F 23.7 °F 20.5 °F 60% 29.82 in 10.0 mi West 12.7 mph 21.9 mph N/A   Overcast
8:55 PM 32.4 °F 26.0 °F 20.3 °F 61% 29.82 in 10.0 mi West 6.9 mph 17.3 mph N/A   Overcast
9:16 PM 32.2 °F 21.8 °F 20.3 °F 62% 29.83 in 10.0 mi WNW 15.0 mph 21.9 mph N/A   Overcast
9:36 PM 32.0 °F 24.8 °F 20.5 °F 63% 29.84 in 10.0 mi West 8.1 mph - N/A   Overcast
9:56 PM 32.0 °F 24.8 °F 20.1 °F 62% 29.84 in 10.0 mi West 8.1 mph 21.9 mph N/A   Overcast
10:15 PM 32.0 °F 24.2 °F 19.4 °F 60% 29.85 in 10.0 mi West 9.2 mph 18.4 mph N/A   Overcast
10:36 PM 31.8 °F 24.6 °F 19.2 °F 60% 29.87 in 10.0 mi West 8.1 mph 21.9 mph N/A   Overcast
10:56 PM 30.7 °F 24.1 °F 15.8 °F 54% 29.88 in 10.0 mi West 6.9 mph 20.7 mph N/A   Mostly Cloudy
11:16 PM 30.0 °F 23.2 °F 15.8 °F 56% 29.89 in 10.0 mi West 6.9 mph 21.9 mph N/A   Scattered Clouds
11:35 PM 29.5 °F 21.8 °F 16.7 °F 59% 29.89 in 10.0 mi West 8.1 mph - N/A   Clear